[[{"header":{"parameterUnit":"m.s-1","parameterCategory":1,"la1":30.2991,"la2":30.254,"lo1":-89.0895,"lo2":-89.0444,"dy":0.0017,"dx":0.0017,"nx":28,"ny":28,"refTime":"2025-01-28T09:00:00:Z","depth":0,"parameterNumber":2,"parameterNumberName":"U-component_of_WINDS"},"data":[0,0,0,0,0,0,0,0,0,0,0,0,0,0,0,0,0,0,0,0,0,0,0,0,0,0,0,0,0,0,0,0,0,0,0,0,0,0,0,0,0,0,0,0,0,0,0,0,0,0,0,0,0,0,0,0,0,0,-1.6502,-1.6502,0,-1.6504,-1.6504,-1.6504,-1.6462,-1.6461,-1.646,-1.6459,-1.6461,-1.6462,-1.6463,0,0,0,0,0,0,0,0,0,0,0,0,0,-1.6463,-1.6464,-1.6502,-1.6502,-1.6502,-1.6504,-1.6504,-1.6504,-1.6462,-1.6461,-1.646,-1.6458,-1.6461,-1.6462,-1.6463,0,0,0,0,0,0,0,0,0,0,0,0,0,-1.6474,-1.6464,-1.6502,-1.6481,-1.648,-1.6504,-1.6504,-1.6504,-1.6463,-1.6461,-1.6459,-1.6458,-1.646,-1.6462,-1.6463,-1.6507,0,0,-1.6468,-1.6469,0,0,0,0,0,0,0,0,-1.6473,-1.6475,-1.6484,-1.6483,-1.6481,-1.6481,-1.6491,-1.6505,-1.6463,-1.6469,-1.6459,-1.6457,-1.6469,-1.647,-1.6474,-1.6507,-1.6507,-1.6469,-1.647,-1.647,-1.6471,0,0,0,0,0,0,0,-1.6472,-1.6475,-1.6502,-1.6485,-1.6482,-1.6472,-1.6472,-1.6493,-1.6478,-1.6468,-1.6465,-1.6466,-1.6468,-1.6472,-1.6474,-1.6507,-1.6468,-1.647,-1.6471,-1.6472,-1.6576,-1.6578,0,0,0,0,0,0,-1.6474,-1.6474,-1.6502,-1.6503,-1.6473,-1.6474,-1.6474,-1.6483,-1.6478,-1.6476,-1.6468,-1.6464,-1.647,-1.6472,-1.6473,-1.6524,-1.647,-1.6472,-1.6473,-1.6574,-1.6577,-1.6579,0,0,0,0,0,0,-1.6474,-1.6477,-1.6502,-1.6488,-1.649,-1.6477,-1.6487,-1.6484,-1.6488,-1.6477,-1.6475,-1.6475,-1.6469,-1.6471,-1.6499,-1.6524,-1.6472,-1.6474,-1.6572,-1.6575,-1.6578,-1.6626,0,0,0,0,0,0,-1.6473,-1.6477,-1.6494,-1.6488,-1.6491,-1.6528,-1.6488,-1.6485,-1.6491,-1.6487,-1.6484,-1.6482,-1.6468,-1.6497,-1.6501,-1.6525,-1.6475,-1.657,-1.6574,-1.6577,-1.6622,-1.663,-1.6637,0,0,0,0,0,-1.6471,-1.6507,-1.6495,-1.6498,-1.6511,-1.6529,-1.6531,-1.6514,-1.6493,-1.651,-1.6503,-1.6482,-1.652,-1.65,-1.6504,-1.6529,-1.6568,-1.6573,-1.6576,-1.6619,-1.6628,-1.6636,0,0,0,0,0,0,-1.6516,-1.6506,-1.6492,-1.6527,-1.6529,-1.6522,-1.6542,-1.6525,-1.6533,-1.6529,-1.6508,-1.6508,-1.6539,-1.6537,-1.6514,-1.6571,-1.6541,-1.6546,-1.6571,-1.658,-1.6588,-1.6587,-1.6477,0,0,0,0,0,-1.6529,-1.6545,-1.6536,-1.6568,-1.6569,-1.6556,-1.6563,-1.655,-1.6552,-1.6553,-1.6548,-1.655,-1.6563,-1.6571,-1.6582,-1.6622,-1.662,-1.6641,-1.6648,-1.6654,-1.6659,-1.6679,-1.6688,-1.6592,-1.6592,-1.6592,0,0,-1.6558,-1.6555,-1.6566,-1.6576,-1.6577,-1.6593,-1.6557,-1.6576,-1.6588,-1.6555,-1.6581,-1.6578,-1.6579,-1.6613,-1.6627,-1.6612,-1.6685,-1.6659,-1.6664,-1.6665,-1.6684,-1.6694,-1.6702,-1.6595,-1.6594,-1.6594,0,0,-1.6619,-1.6618,-1.6644,-1.6645,-1.6646,-1.6637,-1.6643,-1.6639,-1.6635,-1.6661,-1.6637,-1.6651,-1.6673,-1.6675,-1.6679,-1.6741,-1.6722,-1.6745,-1.6783,-1.6803,-1.6811,-1.6818,-1.684,-1.6848,-1.675,-1.675,-1.675,0,-1.6654,-1.6678,-1.666,-1.6681,-1.6686,-1.6657,-1.6684,-1.6686,-1.669,-1.6695,-1.6677,-1.6705,-1.6703,-1.6737,-1.6752,-1.6756,-1.6763,-1.6745,-1.6811,-1.6818,-1.6824,-1.6844,-1.6853,-1.6753,-1.6752,-1.6752,-1.6752,0,-1.6722,-1.6739,-1.676,-1.6765,-1.6773,-1.6797,-1.6782,-1.6792,-1.6779,-1.6771,-1.6798,-1.6796,-1.6806,-1.6813,-1.68,-1.6845,-1.6835,-1.6815,-1.6784,-1.6836,-1.6855,-1.6863,-1.6757,-1.6756,-1.6755,-1.6754,0,0,-1.681,-1.6805,-1.6813,-1.6815,-1.6814,-1.6827,-1.6849,-1.6859,-1.6868,-1.6872,-1.689,-1.691,-1.6891,-1.6896,-1.6883,-1.6901,-1.695,-1.6878,-1.6878,-1.6892,-1.6999,-1.7014,-1.7024,-1.6937,-1.6939,-1.694,-1.6999,0,-1.6869,-1.6907,-1.6891,-1.693,-1.6946,-1.6919,-1.6938,-1.694,-1.6934,-1.6946,-1.6939,-1.6954,-1.6928,-1.693,-1.6947,-1.694,-1.6971,-1.6936,-1.6954,-1.6955,-1.6954,-1.7034,-1.705,-1.7105,-1.7006,-1.7008,-1.7008,0,-1.6943,-1.695,-1.6991,-1.6987,-1.6993,-1.7011,-1.7018,-1.703,-1.7032,-1.7026,-1.7031,-1.7014,-1.7036,-1.7005,-1.7035,-1.7012,-1.7018,-1.7016,-1.7018,-1.7019,-1.6985,-1.7037,-1.7123,-1.7131,-1.702,-1.7019,-1.7018,0,-1.7003,-1.7023,-1.705,-1.7052,-1.7049,-1.7062,-1.7061,-1.706,-1.7067,-1.7074,-1.7078,-1.7088,-1.7093,-1.7101,-1.7087,-1.7066,-1.7119,-1.7087,-1.7115,-1.7115,-1.7127,-1.7126,-1.7215,-1.7131,-1.7131,-1.7131,-1.7131,0,-1.707,-1.7096,-1.7077,-1.7093,-1.7122,-1.7104,-1.7132,-1.7128,-1.7128,-1.7144,-1.7121,-1.7136,-1.7117,-1.713,-1.712,-1.7146,-1.7148,-1.7144,-1.7141,-1.7146,-1.7147,-1.715,-1.7146,-1.7133,-1.7133,-1.7132,-1.7132,0,-1.7142,-1.713,-1.7158,-1.7152,-1.7151,-1.7173,-1.7168,-1.7183,-1.7175,-1.7195,-1.7199,-1.7187,-1.7201,-1.7188,-1.7202,-1.7195,-1.723,-1.7221,-1.7229,-1.7227,-1.7255,-1.7253,-1.7349,-1.7361,-1.727,-1.7271,-1.7272,0,-1.7186,-1.7205,-1.7202,-1.721,-1.7211,-1.7225,-1.7232,-1.7215,-1.7223,-1.7226,-1.7241,-1.7254,-1.7263,-1.7287,-1.7279,-1.729,-1.7281,-1.7314,-1.7283,-1.7287,-1.7282,-1.7281,-1.7282,-1.7321,-1.7322,-1.7323,-1.7324,0,-1.7265,-1.7258,-1.7269,-1.7278,-1.7287,-1.7293,-1.7297,-1.7306,-1.7288,-1.7299,-1.7313,-1.732,-1.7334,-1.7347,-1.7355,-1.7354,-1.7336,-1.7334,-1.7341,-1.7346,-1.735,-1.7348,-1.7247,-1.7331,-1.7331,-1.733,-1.733,-1.7329,-1.7324,-1.734,-1.734,-1.7353,-1.7354,-1.7359,-1.7373,-1.7367,-1.7379,-1.7389,-1.7378,-1.7396,-1.7397,-1.7406,-1.7407,-1.742,-1.7406,-1.7417,-1.7419,-1.7422,-1.7426,-1.7348,-1.7422,-1.7422,-1.7421,-1.7421,-1.7421,0,-1.7401,-1.74,-1.7412,-1.7419,-1.7429,-1.7411,-1.7415,-1.7425,-1.7441,-1.7443,-1.7453,-1.7469,-1.7481,-1.7475,-1.7486,-1.7498,-1.749,-1.7501,-1.75,-1.75,-1.7438,-1.7431,-1.7507,-1.7507,-1.7507,-1.7507,-1.7507,-1.7507,-1.7443,-1.7469,-1.7462,-1.7489,-1.7487,-1.7504,-1.7508,-1.7512,-1.7514,-1.7534,-1.7544,-1.7539,-1.7538,-1.7549,-1.7559,-1.7557,-1.7562,-1.7576,-1.7571,-1.7513,-1.7504,-1.7496,-1.749,-1.7577,-1.7578,-1.7632,-1.7633,-1.7633]},{"header":{"parameterUnit":"m.s-1","parameterCategory":1,"la1":30.2991,"la2":30.254,"lo1":-89.0895,"lo2":-89.0444,"dy":0.0017,"dx":0.0017,"nx":28,"ny":28,"refTime":"2025-01-28T09:00:00:Z","depth":0,"parameterNumber":3,"parameterNumberName":"V-component_of_WINDS"},"data":[0,0,0,0,0,0,0,0,0,0,0,0,0,0,0,0,0,0,0,0,0,0,0,0,0,0,0,0,0,0,0,0,0,0,0,0,0,0,0,0,0,0,0,0,0,0,0,0,0,0,0,0,0,0,0,0,0,0,0.7011,0.7012,0,0.7049,0.7049,0.705,0.7054,0.7053,0.7053,0.7052,0.7091,0.7092,0.7094,0,0,0,0,0,0,0,0,0,0,0,0,0,0.6944,0.6945,0.7011,0.7012,0.7012,0.7049,0.7049,0.705,0.7054,0.7053,0.7053,0.7052,0.7091,0.7092,0.7094,0,0,0,0,0,0,0,0,0,0,0,0,0,0.6977,0.6946,0.7011,0.7019,0.702,0.7049,0.7049,0.705,0.7054,0.7053,0.7053,0.7052,0.709,0.7092,0.7094,0.7119,0,0,0.7101,0.7101,0,0,0,0,0,0,0,0,0.6975,0.6979,0.7017,0.7018,0.7019,0.7046,0.704,0.7073,0.7054,0.7041,0.7052,0.7052,0.7077,0.708,0.7088,0.712,0.7122,0.7101,0.7102,0.7103,0.7103,0,0,0,0,0,0,0,0.6973,0.6978,0.7026,0.7018,0.7019,0.702,0.7024,0.7046,0.7061,0.7042,0.7042,0.7047,0.7077,0.7086,0.7089,0.7123,0.7101,0.7103,0.7104,0.7105,0.7178,0.7178,0,0,0,0,0,0,0.6969,0.6976,0.7025,0.7027,0.6995,0.7022,0.7026,0.7038,0.7061,0.7064,0.7047,0.7047,0.7083,0.7087,0.709,0.7121,0.7103,0.7105,0.7106,0.7177,0.7178,0.7179,0,0,0,0,0,0,0.6967,0.6973,0.7023,0.7002,0.7008,0.7024,0.7037,0.7039,0.7048,0.7065,0.7068,0.7053,0.7082,0.7087,0.7112,0.7123,0.7106,0.7108,0.7176,0.7177,0.7178,0.7182,0,0,0,0,0,0,0.6965,0.6973,0.6982,0.7002,0.7009,0.7044,0.7037,0.704,0.7051,0.7051,0.7072,0.7075,0.7082,0.7109,0.7114,0.7125,0.7109,0.7175,0.7177,0.7178,0.7181,0.7183,0.7185,0,0,0,0,0,0.6963,0.6981,0.6982,0.6988,0.7021,0.7045,0.7049,0.7057,0.7052,0.7062,0.7073,0.7074,0.712,0.7111,0.7117,0.7129,0.7175,0.7176,0.7178,0.7181,0.7183,0.7185,0,0,0,0,0,0,0.6962,0.6984,0.6985,0.7011,0.7026,0.7045,0.7057,0.706,0.7077,0.7076,0.7086,0.709,0.7114,0.7124,0.7113,0.7154,0.7147,0.715,0.7147,0.715,0.7152,0.7149,0.7111,0,0,0,0,0,0.6965,0.6982,0.7,0.7021,0.7028,0.7042,0.7052,0.7057,0.7074,0.708,0.7093,0.7109,0.7127,0.7139,0.7156,0.7183,0.7188,0.7194,0.7196,0.7197,0.72,0.7215,0.7219,0.7184,0.7184,0.7184,0,0,0.6971,0.6985,0.6995,0.7021,0.7033,0.7051,0.7047,0.7066,0.708,0.7083,0.7107,0.7117,0.7135,0.7161,0.7173,0.717,0.721,0.7199,0.72,0.7202,0.7217,0.7221,0.7223,0.7185,0.7185,0.7184,0,0,0.6991,0.7003,0.7022,0.7035,0.7053,0.7062,0.7067,0.7086,0.7093,0.7117,0.712,0.7136,0.7167,0.718,0.7191,0.7217,0.7219,0.7222,0.7233,0.7248,0.725,0.7253,0.7263,0.7266,0.7225,0.7225,0.7225,0,0.6996,0.7023,0.7032,0.7051,0.7062,0.7066,0.7086,0.7098,0.7121,0.7129,0.7125,0.7165,0.7177,0.7206,0.7213,0.7221,0.7227,0.722,0.7249,0.7252,0.7254,0.7264,0.7268,0.7225,0.7225,0.7225,0.7225,0,0.7029,0.7048,0.7061,0.7084,0.7097,0.7116,0.7127,0.714,0.7144,0.7153,0.7178,0.7193,0.7214,0.7222,0.7226,0.7252,0.7249,0.7247,0.724,0.7258,0.7267,0.7271,0.7226,0.7225,0.7225,0.7225,0,0,0.705,0.7077,0.7082,0.7093,0.7114,0.7129,0.7148,0.7169,0.718,0.7196,0.7213,0.7239,0.7238,0.725,0.7256,0.7269,0.7289,0.7265,0.7266,0.727,0.732,0.7322,0.7326,0.729,0.7291,0.7292,0.7319,0,0.7073,0.7108,0.7117,0.7147,0.7165,0.7169,0.7186,0.7201,0.721,0.7227,0.7237,0.7256,0.7252,0.7259,0.7272,0.7284,0.73,0.7282,0.7307,0.7308,0.7303,0.7331,0.7333,0.7357,0.7322,0.7323,0.7323,0,0.7105,0.7122,0.7154,0.7174,0.7181,0.7197,0.7217,0.7232,0.725,0.7256,0.727,0.7274,0.7295,0.7287,0.7316,0.7304,0.7315,0.7322,0.7323,0.7327,0.7317,0.7335,0.7365,0.7369,0.7329,0.7328,0.7328,0,0.7118,0.7149,0.7173,0.7182,0.7205,0.7215,0.7226,0.7242,0.7254,0.7272,0.728,0.73,0.7311,0.7326,0.7336,0.7329,0.7365,0.7357,0.7371,0.7371,0.7379,0.7379,0.7412,0.7385,0.7385,0.7385,0.7384,0,0.7144,0.7163,0.7179,0.7193,0.7216,0.7225,0.7247,0.7257,0.7272,0.7289,0.7294,0.7309,0.7321,0.7339,0.7346,0.737,0.7375,0.7381,0.7383,0.7381,0.738,0.7389,0.7387,0.7386,0.7385,0.7385,0.7385,0,0.7163,0.7174,0.72,0.7219,0.7225,0.724,0.7258,0.7272,0.7281,0.7303,0.7308,0.7323,0.7344,0.7355,0.7381,0.7387,0.7414,0.7414,0.7408,0.7409,0.7422,0.7421,0.7463,0.7469,0.7437,0.7437,0.7437,0,0.7179,0.7194,0.7215,0.7227,0.7237,0.7256,0.7268,0.7278,0.7291,0.7312,0.7325,0.7346,0.7363,0.7397,0.741,0.743,0.7432,0.7445,0.7435,0.7433,0.7433,0.7432,0.7434,0.7447,0.7447,0.7447,0.7448,0,0.7206,0.7211,0.7229,0.7249,0.7263,0.728,0.7296,0.7305,0.7318,0.7332,0.7353,0.7367,0.7394,0.7415,0.7436,0.7447,0.745,0.7451,0.7455,0.7454,0.745,0.7453,0.7414,0.745,0.745,0.7449,0.7449,0.7449,0.7224,0.7239,0.7256,0.7276,0.7289,0.7304,0.7319,0.733,0.7348,0.7371,0.7376,0.7399,0.7416,0.7445,0.7457,0.7475,0.7472,0.7479,0.748,0.7482,0.7483,0.7446,0.7479,0.7479,0.7479,0.7479,0.7479,0,0.7253,0.7264,0.7283,0.7305,0.7321,0.7322,0.734,0.7353,0.7373,0.7389,0.7406,0.7431,0.7452,0.7467,0.7489,0.75,0.7502,0.7506,0.7505,0.7508,0.7484,0.7478,0.7504,0.7504,0.7504,0.7504,0.7504,0.7504,0.727,0.7294,0.7301,0.7332,0.7343,0.7366,0.7376,0.739,0.7403,0.7431,0.7448,0.7458,0.7474,0.7496,0.7516,0.7519,0.7527,0.7531,0.7535,0.7512,0.751,0.7507,0.7502,0.7532,0.7532,0.7558,0.7558,0.7559]}]]